Location: Devargunta
(16.7631°N, 80.9077°E)
Time: 11:02:25
(UTC+00:00)

Cosmos 540 Rocket - Pass Details

Date: 29 November 2021
Orbit: 739 x 754 km, 74.1° (Epoch: 26 January)

Event Time Altitude Azimuth Distance (km) Brightness Sun altitude
Rises 12:20:28 0° 193° (SSW) 3,168 7.2 -5.1°
Reaches altitude 10° 12:22:49 10° 193° (SSW) 2,244 6.4 -5.6°
Maximum altitude 12:27:54 90° 189° (S) 743 3.5 -6.8°
Drops below altitude 10° 12:32:59 10° 13° (NNE) 2,243 5.6 -7.9°
Sets 12:35:20 0° 14° (NNE) 3,166 6.4 -8.5°
